CZ-3C DEB, 39342

Orbit data source: Space-Track

CZ-3C DEB, 39342 is space debris in HEO originally from a launch on Sun, 31 Oct 2010 UTC launched from the Xichang Space Center, China (XSC). Debris objects in space refer to the collection of defunct objects orbiting the Earth. Examples of debris include non-operational satellites, rocket bodies, and fragments generated from explosions, collisions, or faulty payload assembly.

Loading next visibility...
Identifier
39342, 2010-057G
Orbit
HEO
Country
Flag of CNCN / PRC
Related business
Manufacturer
CALT
Mission
Spacecraft
Bus & Motor
Unknown
Mass
Unknown
Launch date (UTC)
2010-10-31 (16 years ago)
Launch vehicle
Unknown
Launch site
Xichang Space Center, China (XSC)
Object type
Payload
Rocket body
Debris
Shape & HBR
Unknown shape, 0.3 m
Radar Cross Section
Medium (>0.1 m² and <1 m²)

Expand to show TLE details & history
Last TLE update: 5 days ago

TLE from 5 days ago
0 CZ-3C DEB
1 39342U 10057G   26167.26445674 -.00000046  00000-0  38220-3 0  9993
2 39342  20.0080 100.7280 7215009 159.1476 355.4903  2.20684809102199
Epoch: 2026-06-16T06:20Z
TLE epoch observation values (Epoch: 2026-06-16T06:20:49.062Z)
Latitude
17.16517°
Longitude
-136.44228°
Altitude
1,216.592 km
Speed
9.433 km/s
True Right ascension
14h 53m 12s
True Declination
17° 04' 27"
Sunlit
Object was in partial shadow at epoch
Visualization orbit readout
Latitude
Unknown
Longitude
Unknown
Altitude
Unknown
Speed
Unknown
Apparent Right ascension
Unknown
Apparent Declination
Unknown
Sunlit
N/A
Visualization observer readout
Local Sidereal Time
18:47:29
Azimuth
Unknown
Elevation
Unknown
Doppler factor
Unknown
Orbital elements
Apogee altitude
36,529.792 km
Perigee altitude
563.375 km
Semi-major axis
24,924.721 km
Eccentricity
0.7215
Inclination
20.008°
RAAN
100.728°
Arg. of periapsis
159.1476°
True anomaly
322.1878°
Mean anomaly
355.4903°
Eccentric anomaly
344.31297°
Mean motion
0.55157 °/min
Orbital period
652.69 mins
BSTAR
0.0003822
Loading maneuver chart data...
Computing Atmospheric mass density...
Loading historical data...
Loading historical data...
Loading historical data...
Loading historical data...
Loading historical data...
Loading historical data...
Loading historical data...

Documentation

Showing up to 5 results
|